QIANFAN-13 (60391 NORAD) Tracking and Keplerian Element Data

This shows tracking and keplerian element data for the satellite.

Feedback or suggestion? Click here.




ElementValue
Catalog60391
NameQIANFAN-13
Epoch Orbit958
Epoch Day286.48456457
Epoch Year2024
RAAN343.4568
Inclination88.9942
Eccentricity0.0015525
Argument of Perigee19.381
Mean Anonmoly340.7968
Mean Motion14.21718614
Decay Rate1.507E-05
L11 60391U 24140N 24286.48456457 .00001507 00000+0 67885-3 0 9994
L22 60391 88.9942 343.4568 0015525 19.3810 340.7968 14.21718614 9588



Live tracking and technical data element details for QIANFAN-13 (NORAD 60391). QIANFAN-13 can be tracked NOW for your location showing map with azimuth and elevation plus other details from your city location.







IsCatalogInMostPopularTable: catalog: 60391, numindb: 4
Update: records affected: 1



GetName: 60391 QIANFAN-13

Hit Count: updated at: Wed, 04 Dec 2024 18:26:20 GMT